OBJECT S (43774 NORAD) Tracking and Keplerian Element Data

This shows tracking and keplerian element data for the satellite.

Feedback or suggestion? Click here.




ElementValue
Catalog43774
NameOBJECT S
Epoch Orbit663
Epoch Day17.20027667
Epoch Year2019
RAAN90.9128
Inclination97.7663
Eccentricity0.0014347
Argument of Perigee112.01
Mean Anonmoly248.2646
Mean Motion14.94796005
Decay Rate4.36E-06
L11 43774U 18099S 19017.20027667 .00000436 00000-0 45314-4 0 9994
L22 43774 97.7663 90.9128 0014347 112.0100 248.2646 14.94796005 6630

Live tracking and technical data element details for OBJECT S (NORAD 43774). OBJECT S can be tracked NOW for your location showing map with azimuth and elevation plus other details from your city location.

Track the satellite on the map from your city or location and see movement details for azimuth, elevation, latitude, longitude, range, height, and movement on the map or in text.







IsCatalogInMostPopularTable: catalog: 43774, numindb: 18
Update: records affected: 1



GetName: 43774 OBJECT S

Hit Count: updated at: Fri, 18 Jan 2019 22:30:34 GMT